Weather History for KBPT - May, 2014

Change the Weather History Date:

Saturday, May 10, 2014

  Actual Average Record
Temperature  
Mean Temperature 79 °F 75 °F  
Max Temperature 85 °F 84 °F 95 °F (1927)
Min Temperature 72 °F 66 °F 49 °F (1961)
Degree Days  
Heating Degree Days 0 0  
Month to date heating degree days 0 0  
Since 1 July heating degree days 1710 1400  
Cooling Degree Days 14 10  
Month to date cooling degree days 75 86  
Year to date cooling degree days 276 313  
Growing Degree Days 26 (Base 50)    
Moisture  
Dew Point 71 °F    
Average Humidity 80    
Maximum Humidity 94    
Minimum Humidity 65    
Precipitation  
Precipitation T in 0.18 in 6.52 in (2013)
Month to date precipitation 0.04 1.69  
Year to date precipitation 11.07 17.27  
Snow  
Snow 0.00 in 0.00 in 0.00 in ()
Month to date snowfall 0.0 0.0  
Since 1 July snowfall 0.3 T  
Snow Depth 0.00 in    
Sea Level Pressure  
Sea Level Pressure 29.91 in    
Wind  
Wind Speed 14 mph (SE)    
Max Wind Speed 21 mph    
Max Gust Speed 26 mph    
Visibility 9 miles    
Events      
T = Trace of Precipitation, MM = Missing Value Source: NWS Daily Summary

Daily Weather History Graph

Daily Weather History Graph

Search for Another Location

Airport or City:

Trip Planner

Search our weather history database for the weather conditions in past years. The results will help you decide how hot, cold, wet, or windy it might be!

Date:

Astronomy

May. 10, 2014 Rise Set
Actual Time 6:26 AM CDT 7:59 PM CDT
Civil Twilight 6:00 AM CDT 8:25 PM CDT
Nautical Twilight 5:29 AM CDT 8:56 PM CDT
Astronomical Twilight 4:56 AM CDT 9:28 PM CDT
Moon 4:12 PM CDT (5/10) 3:40 AM CDT (5/10)
Length of Visible Light 14h 24m
Length of Day
13h 33m
Waxing Gibbous, 82% of the Moon is Illuminated
May 10
Waxing Gibbous
May 14
Full
May 21
Last Quarter
May 28
New
Jun 5
First Quarter

Hourly Weather History & Observations

Time (CDT) Temp. Heat Index Dew Point Humidity Pressure Visibility Wind Dir Wind Speed Gust Speed Precip Events Conditions
12:53 AM 73.9 °F - 69.1 °F 85% 29.88 in 10.0 mi ESE 13.8 mph - N/A   Clear
1:53 AM 73.0 °F - 66.9 °F 81% 29.87 in 10.0 mi SE 12.7 mph - N/A   Clear
2:53 AM 73.9 °F - 66.0 °F 76% 29.88 in 10.0 mi SE 16.1 mph - N/A   Mostly Cloudy
3:53 AM 73.0 °F - 68.0 °F 84% 29.89 in 10.0 mi East 10.4 mph - N/A   Overcast
4:53 AM 72.0 °F - 68.0 °F 87% 29.91 in 10.0 mi East 6.9 mph - N/A   Mostly Cloudy
5:38 AM 72.0 °F - 69.1 °F 91% 29.92 in 10.0 mi East 9.2 mph - N/A   Mostly Cloudy
5:53 AM 71.6 °F - 69.8 °F 94% 29.92 in 10.0 mi ESE 9.2 mph - N/A   Mostly Cloudy
6:53 AM 72.0 °F - 69.1 °F 91% 29.94 in 9.0 mi ESE 8.1 mph - N/A   Mostly Cloudy
7:53 AM 73.9 °F - 70.0 °F 87% 29.94 in 10.0 mi ESE 13.8 mph - N/A   Overcast
8:53 AM 75.9 °F - 70.0 °F 82% 29.96 in 10.0 mi ESE 17.3 mph - N/A   Overcast
9:53 AM 77.0 °F - 70.0 °F 79% 29.96 in 10.0 mi SE 18.4 mph 24.2 mph N/A   Overcast
10:53 AM 79.0 °F - 70.0 °F 74% 29.96 in 10.0 mi North - - N/A   Overcast
11:53 AM 79.0 °F - 70.0 °F 74% 29.96 in 10.0 mi SSE 15.0 mph - N/A   Overcast
12:53 PM 84.0 °F 89.0 °F 71.1 °F 65% 29.94 in 10.0 mi SSE 15.0 mph 23.0 mph N/A   Overcast
1:00 PM 84.0 °F 89.0 °F 71.1 °F 65% 29.93 in 10.0 mi SE 12.7 mph 23.0 mph N/A   Scattered Clouds
1:26 PM 84.0 °F 89.0 °F 71.1 °F 65% 29.93 in 10.0 mi SE 12.7 mph - N/A   Mostly Cloudy
1:53 PM 82.0 °F 86.3 °F 71.1 °F 69% 29.94 in 10.0 mi SSE 13.8 mph - N/A   Overcast
2:53 PM 82.9 °F 87.5 °F 71.1 °F 67% 29.92 in 10.0 mi ESE 13.8 mph - N/A   Overcast
3:53 PM 84.9 °F 91.4 °F 73.0 °F 67% 29.90 in 10.0 mi SE 17.3 mph 24.2 mph N/A   Mostly Cloudy
4:53 PM 82.0 °F 86.7 °F 72.0 °F 71% 29.88 in 10.0 mi SE 15.0 mph - N/A   Mostly Cloudy
5:53 PM 80.1 °F 83.8 °F 72.0 °F 76% 29.87 in 10.0 mi SSE 15.0 mph - N/A   Mostly Cloudy
6:15 PM 80.1 °F 83.8 °F 72.0 °F 76% 29.87 in 8.0 mi SSE 12.7 mph - N/A   Overcast
6:24 PM 79.0 °F - 72.0 °F 79% 29.87 in 8.0 mi SSE 16.1 mph - N/A   Overcast
6:53 PM 79.0 °F - 72.0 °F 79% 29.86 in 7.0 mi SSE 12.7 mph - N/A   Overcast
7:53 PM 78.1 °F - 72.0 °F 81% 29.86 in 9.0 mi SSE 11.5 mph - N/A   Overcast
8:53 PM 77.0 °F - 73.0 °F 88% 29.88 in 9.0 mi SE 13.8 mph - N/A   Overcast
9:53 PM 77.0 °F - 73.0 °F 88% 29.88 in 9.0 mi SSE 13.8 mph - 0.00 in   Overcast
10:53 PM 77.0 °F - 73.0 °F 88% 29.90 in 8.0 mi SSE 13.8 mph - N/A   Overcast
11:53 PM 75.9 °F - 73.0 °F 91% 29.89 in 6.0 mi SSE 15.0 mph - 0.00 in   Overcast